Tracking 19562 objects as of 23-Mar-2019
HD Live streaming from Space Station
objects crossing your sky now

COSMOS 1156

Track COSMOS 1156 now!
10-day predictions
COSMOS 1156 is classified as:


NORAD ID: 11691
Int'l Code: 1980-012A
Perigee: 1,404.9 km
Apogee: 1,481.3 km
Inclination: 74.0 °
Period: 114.6 minutes
Semi major axis: 7814 km
RCS: 0.7253 m2 (medium)
Launch date: February 11, 1980
Source: Commonwealth of Independent States (former USSR) (CIS)
Launch site: PLESETSK MISSILE AND SPACE COMPLEX (PKMTR)
aabbcc
Your satellite tracking list
Your tracking list is empty




NASA's NSSDC Master Catalog

Two Line Element Set (TLE):
1 11691U 80012A   19081.85624972  .00000005  00000-0  12834-3 0  9997
2 11691  74.0244 350.3173 0048931 334.7709  87.2254 12.56852395794511
Source of the keplerian elements: AFSPC